DLH3VL LDZA-EDDF

Flight info

Callsign DLH3VL
Flight time 1h 10m
Altitude 38000
Route PODET DCT RADLY DCT SIMBA DCT AKINI T161 DEBHI DEBHI1C
Aircraft A320/M-SDE2E3FGIJ1LORWXYZ/HB1

Departure

Time 2026-05-05 07:17
Airport Zagreb Franjo Tuđman International Airport (LDZA)

Arrival

Time 2026-05-05 08:27
Airport Frankfurt Main Airport (EDDF)
Time Latitude Longitude Altitude Speed Heading
2026-05-05 06:50 45.74180 16.07835 359 ft 0 kts 136°
2026-05-05 07:09 45.74188 16.07825 366 ft 3 kts 137°
2026-05-05 07:09 45.74204 16.07803 364 ft 3 kts 137°
2026-05-05 07:09 45.74221 16.07781 362 ft 3 kts 136°
2026-05-05 07:10 45.74234 16.07757 362 ft 3 kts 103°
2026-05-05 07:10 45.74233 16.07730 362 ft 3 kts 55°
2026-05-05 07:10 45.74224 16.07715 359 ft 1 kts 46°
2026-05-05 07:10 45.74223 16.07714 359 ft 0 kts 46°
2026-05-05 07:12 45.74225 16.07716 359 ft 2 kts 46°
2026-05-05 07:12 45.74249 16.07754 359 ft 8 kts 46°
2026-05-05 07:12 45.74288 16.07813 359 ft 7 kts 46°
2026-05-05 07:13 45.74322 16.07864 359 ft 7 kts 46°
2026-05-05 07:13 45.74366 16.07902 359 ft 8 kts
2026-05-05 07:13 45.74425 16.07848 362 ft 11 kts 319°
2026-05-05 07:13 45.74478 16.07779 365 ft 11 kts 317°
2026-05-05 07:14 45.74545 16.07706 359 ft 13 kts 344°
2026-05-05 07:14 45.74620 16.07770 367 ft 13 kts 45°
2026-05-05 07:14 45.74679 16.07858 359 ft 12 kts 47°
2026-05-05 07:14 45.74744 16.07958 366 ft 16 kts 47°
2026-05-05 07:15 45.74818 16.08066 358 ft 14 kts 37°
2026-05-05 07:15 45.74895 16.08018 358 ft 12 kts 318°
2026-05-05 07:15 45.74952 16.07942 358 ft 10 kts 316°
2026-05-05 07:15 45.74945 16.07868 362 ft 9 kts 225°
2026-05-05 07:16 45.74934 16.07851 362 ft 0 kts 225°
2026-05-05 07:16 45.74853 16.07729 358 ft 53 kts 227°
2026-05-05 07:16 45.74610 16.07357 361 ft 100 kts 227°
2026-05-05 07:16 45.73988 16.06415 374 ft 156 kts 227°
2026-05-05 07:17 45.73188 16.05215 888 ft 167 kts 227°
2026-05-05 07:17 45.72433 16.04000 1733 ft 165 kts 228°
2026-05-05 07:17 45.71645 16.02703 2274 ft 183 kts 229°
2026-05-05 07:17 45.70757 16.01247 2706 ft 204 kts 229°
2026-05-05 07:18 45.69774 15.99644 3258 ft 221 kts 229°
2026-05-05 07:18 45.68742 15.97970 4095 ft 227 kts 229°
2026-05-05 07:18 45.67971 15.95982 4854 ft 242 kts 257°
2026-05-05 07:18 45.68194 15.93528 5581 ft 263 kts 293°
2026-05-05 07:19 45.69468 15.91580 6487 ft 280 kts 327°
2026-05-05 07:19 45.71385 15.90894 7373 ft 294 kts
2026-05-05 07:19 45.73420 15.91416 8316 ft 300 kts 15°
2026-05-05 07:19 45.75426 15.92328 9265 ft 305 kts 17°
2026-05-05 07:20 45.77458 15.93269 10186 ft 309 kts 17°
2026-05-05 07:20 45.79517 15.94224 11044 ft 314 kts 17°
2026-05-05 07:20 45.81639 15.95023 11900 ft 318 kts 10°
2026-05-05 07:20 45.83835 15.95532 12760 ft 322 kts
2026-05-05 07:21 45.86083 15.95901 13600 ft 328 kts
2026-05-05 07:21 45.88366 15.96234 14393 ft 332 kts
2026-05-05 07:21 45.90672 15.96582 15219 ft 334 kts
2026-05-05 07:21 45.92988 15.96959 16040 ft 336 kts
2026-05-05 07:22 45.95322 15.97009 16827 ft 336 kts 350°
2026-05-05 07:22 45.97574 15.96191 17623 ft 334 kts 335°
2026-05-05 07:22 45.99633 15.94556 18006 ft 347 kts 320°
2026-05-05 07:22 46.01351 15.92038 18289 ft 359 kts 304°
2026-05-05 07:23 46.02872 15.89150 18820 ft 365 kts 305°
2026-05-05 07:23 46.04432 15.86230 19457 ft 369 kts 305°
2026-05-05 07:23 46.06013 15.83303 20120 ft 371 kts 306°
2026-05-05 07:23 46.07608 15.80364 20787 ft 374 kts 306°
2026-05-05 07:24 46.09214 15.77400 21452 ft 377 kts 306°
2026-05-05 07:24 46.10833 15.74408 22122 ft 380 kts 306°
2026-05-05 07:24 46.12461 15.71392 22780 ft 383 kts 306°
2026-05-05 07:24 46.14102 15.68350 23440 ft 386 kts 306°
2026-05-05 07:25 46.15765 15.65289 24026 ft 389 kts 308°
2026-05-05 07:25 46.17677 15.62510 24582 ft 393 kts 318°
2026-05-05 07:25 46.19919 15.60239 25147 ft 397 kts 327°
2026-05-05 07:25 46.22297 15.58177 25699 ft 399 kts 326°
2026-05-05 07:26 46.24646 15.56140 26224 ft 400 kts 326°
2026-05-05 07:26 46.27068 15.54034 26752 ft 402 kts 326°
2026-05-05 07:26 46.29467 15.51941 27263 ft 404 kts 326°
2026-05-05 07:26 46.31848 15.49861 27756 ft 406 kts 326°
2026-05-05 07:27 46.34300 15.47714 28245 ft 408 kts 326°
2026-05-05 07:27 46.36730 15.45580 28705 ft 410 kts 326°
2026-05-05 07:27 46.39177 15.43426 29161 ft 412 kts 326°
2026-05-05 07:27 46.41637 15.41261 29596 ft 415 kts 325°
2026-05-05 07:28 46.44107 15.39087 30003 ft 417 kts 325°
2026-05-05 07:28 46.46567 15.36925 30370 ft 419 kts 325°
2026-05-05 07:28 46.49068 15.34729 30699 ft 422 kts 325°
2026-05-05 07:28 46.51584 15.32515 31018 ft 425 kts 325°
2026-05-05 07:29 46.54118 15.30280 31336 ft 427 kts 325°
2026-05-05 07:29 46.56664 15.28031 31664 ft 429 kts 326°
2026-05-05 07:29 46.59218 15.25770 32056 ft 430 kts 326°
2026-05-05 07:29 46.61770 15.23507 32452 ft 430 kts 326°
2026-05-05 07:30 46.64290 15.21189 32888 ft 428 kts 321°
2026-05-05 07:30 46.68757 15.15537 33710 ft 425 kts 315°
2026-05-05 07:30 46.70935 15.12628 34074 ft 425 kts 315°
2026-05-05 07:31 46.73112 15.09720 34429 ft 425 kts 315°
2026-05-05 07:31 46.75289 15.06811 34799 ft 425 kts 315°
2026-05-05 07:31 46.77467 15.03897 35153 ft 424 kts 315°
2026-05-05 07:31 46.79646 15.00985 35489 ft 424 kts 315°
2026-05-05 07:32 46.81819 14.98078 35833 ft 424 kts 314°
2026-05-05 07:32 46.83992 14.95174 36188 ft 423 kts 314°
2026-05-05 07:32 46.86154 14.92281 36551 ft 422 kts 314°
2026-05-05 07:32 46.88319 14.89380 36837 ft 422 kts 314°
2026-05-05 07:33 46.90482 14.86472 37115 ft 423 kts 313°
2026-05-05 07:33 46.92644 14.83556 37388 ft 424 kts 314°
2026-05-05 07:33 46.94810 14.80631 37615 ft 425 kts 314°
2026-05-05 07:33 46.96986 14.77689 37851 ft 425 kts 314°
2026-05-05 07:34 46.99161 14.74753 37962 ft 426 kts 314°
2026-05-05 07:34 47.01338 14.71813 37977 ft 425 kts 314°
2026-05-05 07:34 47.05674 14.65944 37967 ft 424 kts 314°
2026-05-05 07:35 47.10001 14.60073 37962 ft 423 kts 314°
2026-05-05 07:35 47.14321 14.54198 37954 ft 424 kts 314°
2026-05-05 07:36 47.18654 14.48293 37956 ft 425 kts 314°
2026-05-05 07:36 47.22988 14.42368 37958 ft 425 kts 314°
2026-05-05 07:37 47.27315 14.36433 37955 ft 425 kts 314°
2026-05-05 07:37 47.31606 14.30529 37954 ft 425 kts 314°
2026-05-05 07:38 47.35963 14.24530 37962 ft 425 kts 314°
2026-05-05 07:38 47.40279 14.18568 37947 ft 425 kts 314°
2026-05-05 07:39 47.44574 14.12628 37935 ft 425 kts 314°
2026-05-05 07:39 47.48888 14.06654 37928 ft 425 kts 314°
2026-05-05 07:40 47.53206 14.00657 37928 ft 426 kts 313°
2026-05-05 07:40 47.57515 13.94645 37914 ft 426 kts 313°
2026-05-05 07:41 47.61822 13.88623 37919 ft 426 kts 313°
2026-05-05 07:41 47.66133 13.82593 37902 ft 426 kts 313°
2026-05-05 07:42 47.70443 13.76541 37900 ft 426 kts 313°
2026-05-05 07:42 47.74750 13.70484 37891 ft 426 kts 313°
2026-05-05 07:43 47.79053 13.64419 37894 ft 427 kts 313°
2026-05-05 07:43 47.83361 13.58343 37899 ft 427 kts 312°
2026-05-05 07:44 47.87663 13.52251 37896 ft 427 kts 312°
2026-05-05 07:44 47.91964 13.46139 37892 ft 427 kts 313°
2026-05-05 07:45 47.96261 13.40028 37888 ft 427 kts 312°
2026-05-05 07:45 48.00559 13.33891 37890 ft 427 kts 312°
2026-05-05 07:46 48.04848 13.27746 37904 ft 427 kts 312°
2026-05-05 07:46 48.09140 13.21591 37894 ft 428 kts 312°
2026-05-05 07:47 48.13431 13.15420 37889 ft 428 kts 312°
2026-05-05 07:47 48.17722 13.09244 37894 ft 428 kts 312°
2026-05-05 07:48 48.22004 13.03057 37892 ft 428 kts 312°
2026-05-05 07:48 48.26137 12.96658 37890 ft 426 kts 308°
2026-05-05 07:49 48.30020 12.89966 37889 ft 425 kts 306°
2026-05-05 07:49 48.33869 12.83220 37887 ft 425 kts 307°
2026-05-05 07:50 48.37767 12.76525 37898 ft 426 kts 307°
2026-05-05 07:50 48.41695 12.69859 37897 ft 426 kts 307°
2026-05-05 07:51 48.45612 12.63171 37886 ft 425 kts 307°
2026-05-05 07:51 48.49517 12.56478 37890 ft 425 kts 307°
2026-05-05 07:52 48.53425 12.49769 37876 ft 425 kts 307°
2026-05-05 07:52 48.57299 12.43103 37880 ft 425 kts 307°
2026-05-05 07:53 48.61195 12.36373 37879 ft 425 kts 307°
2026-05-05 07:53 48.65082 12.29634 37891 ft 425 kts 307°
2026-05-05 07:54 48.68963 12.22890 37900 ft 425 kts 307°
2026-05-05 07:54 48.72774 12.16066 37886 ft 421 kts 300°
2026-05-05 07:55 48.75287 12.08224 37882 ft 411 kts 282°
2026-05-05 07:55 48.76348 11.99772 37876 ft 408 kts 276°
2026-05-05 07:56 48.77264 11.91289 37876 ft 408 kts 276°
2026-05-05 07:56 48.78177 11.82790 37891 ft 408 kts 276°
2026-05-05 07:57 48.79078 11.74299 37885 ft 408 kts 275°
2026-05-05 07:57 48.79969 11.65805 37883 ft 408 kts 275°
2026-05-05 07:58 48.80853 11.57318 37880 ft 407 kts 275°
2026-05-05 07:58 48.81732 11.48830 37879 ft 407 kts 275°
2026-05-05 07:59 48.82602 11.40340 37893 ft 407 kts 275°
2026-05-05 07:59 48.83467 11.31840 37472 ft 411 kts 275°
2026-05-05 08:00 48.84008 11.27573 36896 ft 412 kts 282°
2026-05-05 08:00 48.85006 11.23511 36414 ft 412 kts 292°
2026-05-05 08:00 48.86482 11.19769 35895 ft 414 kts 302°
2026-05-05 08:00 48.88391 11.16476 35325 ft 419 kts 312°
2026-05-05 08:01 48.90545 11.13481 34731 ft 419 kts 313°
2026-05-05 08:01 48.92692 11.10503 34221 ft 417 kts 313°
2026-05-05 08:01 48.94109 11.08534 33875 ft 416 kts 313°
2026-05-05 08:01 48.96233 11.05577 33309 ft 413 kts 313°
2026-05-05 08:02 48.98343 11.02628 32836 ft 410 kts 313°
2026-05-05 08:02 49.00429 10.99704 32333 ft 407 kts 313°
2026-05-05 08:02 49.02505 10.96788 31850 ft 403 kts 313°
2026-05-05 08:02 49.04553 10.93902 31381 ft 400 kts 313°
2026-05-05 08:03 49.06590 10.91029 30904 ft 397 kts 313°
2026-05-05 08:03 49.08611 10.88180 30444 ft 395 kts 313°
2026-05-05 08:03 49.10623 10.85345 29982 ft 392 kts 313°
2026-05-05 08:03 49.12615 10.82530 29511 ft 389 kts 313°
2026-05-05 08:04 49.14588 10.79738 29093 ft 384 kts 313°
2026-05-05 08:04 49.16536 10.76973 28657 ft 380 kts 313°
2026-05-05 08:04 49.18466 10.74236 28245 ft 376 kts 313°
2026-05-05 08:04 49.20365 10.71520 27840 ft 372 kts 312°
2026-05-05 08:05 49.22196 10.68753 27407 ft 368 kts 310°
2026-05-05 08:05 49.23966 10.65955 26979 ft 364 kts 310°
2026-05-05 08:05 49.25700 10.63163 26574 ft 361 kts 309°
2026-05-05 08:05 49.27423 10.60384 26141 ft 358 kts 309°
2026-05-05 08:06 49.29134 10.57639 25711 ft 355 kts 309°
2026-05-05 08:06 49.30841 10.54918 25272 ft 353 kts 309°
2026-05-05 08:06 49.32546 10.52212 24838 ft 351 kts 309°
2026-05-05 08:06 49.34239 10.49528 24387 ft 350 kts 309°
2026-05-05 08:07 49.35912 10.46824 23941 ft 347 kts 306°
2026-05-05 08:07 49.37339 10.43863 23574 ft 347 kts 300°
2026-05-05 08:07 49.38725 10.40810 23193 ft 349 kts 300°
2026-05-05 08:07 49.40120 10.37752 22827 ft 349 kts 301°
2026-05-05 08:08 49.41515 10.34704 22477 ft 348 kts 301°
2026-05-05 08:08 49.42905 10.31668 22117 ft 347 kts 301°
2026-05-05 08:08 49.44288 10.28642 21767 ft 345 kts 301°
2026-05-05 08:08 49.45660 10.25631 21418 ft 343 kts 301°
2026-05-05 08:09 49.47024 10.22629 21063 ft 342 kts 301°
2026-05-05 08:09 49.48387 10.19630 20715 ft 341 kts 301°
2026-05-05 08:09 49.49743 10.16640 20370 ft 341 kts 301°
2026-05-05 08:09 49.51093 10.13653 20024 ft 339 kts 301°
2026-05-05 08:10 49.52420 10.10710 19681 ft 339 kts 301°
2026-05-05 08:10 49.53759 10.07738 19342 ft 337 kts 301°
2026-05-05 08:10 49.55095 10.04777 18998 ft 336 kts 301°
2026-05-05 08:10 49.56426 10.01828 18654 ft 335 kts 301°
2026-05-05 08:11 49.57749 9.98892 18318 ft 333 kts 301°
2026-05-05 08:11 49.59087 9.95922 17947 ft 332 kts 301°
2026-05-05 08:11 49.60383 9.93041 17605 ft 330 kts 301°
2026-05-05 08:11 49.61688 9.90137 17267 ft 329 kts 301°
2026-05-05 08:12 49.62987 9.87243 16930 ft 327 kts 301°
2026-05-05 08:12 49.64276 9.84363 16598 ft 325 kts 301°
2026-05-05 08:12 49.65556 9.81498 16266 ft 323 kts 301°
2026-05-05 08:12 49.66828 9.78653 15931 ft 321 kts 301°
2026-05-05 08:13 49.68092 9.75821 15614 ft 319 kts 301°
2026-05-05 08:13 49.69343 9.73009 15291 ft 317 kts 301°
2026-05-05 08:13 49.70585 9.70207 14968 ft 315 kts 301°
2026-05-05 08:13 49.71818 9.67427 14648 ft 313 kts 301°
2026-05-05 08:14 49.73044 9.64669 14331 ft 310 kts 301°
2026-05-05 08:14 49.74267 9.61925 14014 ft 309 kts 302°
2026-05-05 08:14 49.75481 9.59195 13700 ft 307 kts 302°
2026-05-05 08:14 49.76683 9.56486 13359 ft 305 kts 302°
2026-05-05 08:15 49.77877 9.53788 13043 ft 303 kts 301°
2026-05-05 08:15 49.79063 9.51102 12742 ft 302 kts 301°
2026-05-05 08:15 49.80246 9.48422 12426 ft 301 kts 302°
2026-05-05 08:15 49.81423 9.45753 12126 ft 300 kts 302°
2026-05-05 08:16 49.82594 9.43087 11824 ft 299 kts 302°
2026-05-05 08:16 49.83764 9.40422 11520 ft 298 kts 302°
2026-05-05 08:16 49.84928 9.37774 11214 ft 297 kts 302°
2026-05-05 08:16 49.86031 9.35078 10912 ft 295 kts 294°
2026-05-05 08:17 49.86755 9.32130 10603 ft 291 kts 284°
2026-05-05 08:17 49.87327 9.29128 10295 ft 291 kts 284°
2026-05-05 08:17 49.87900 9.26126 9983 ft 290 kts 284°
2026-05-05 08:17 49.88470 9.23135 9670 ft 289 kts 284°
2026-05-05 08:18 49.89039 9.20151 9351 ft 288 kts 284°
2026-05-05 08:18 49.89604 9.17179 9044 ft 287 kts 284°
2026-05-05 08:18 49.90167 9.14220 8741 ft 285 kts 284°
2026-05-05 08:18 49.90726 9.11279 8457 ft 284 kts 284°
2026-05-05 08:19 49.91390 9.08408 8131 ft 283 kts 297°
2026-05-05 08:19 49.92677 9.06114 7834 ft 285 kts 322°
2026-05-05 08:19 49.94478 9.04863 7513 ft 287 kts 348°
2026-05-05 08:19 49.96469 9.04875 7209 ft 288 kts
2026-05-05 08:20 49.98452 9.05309 6893 ft 288 kts
2026-05-05 08:20 50.00437 9.05748 6573 ft 287 kts
2026-05-05 08:20 50.02404 9.06178 6253 ft 286 kts
2026-05-05 08:20 50.04373 9.06348 5928 ft 284 kts 353°
2026-05-05 08:21 50.06253 9.05539 5609 ft 280 kts 333°
2026-05-05 08:21 50.07832 9.03834 5317 ft 274 kts 313°
2026-05-05 08:21 50.08967 9.01542 5107 ft 262 kts 302°
2026-05-05 08:21 50.09961 8.99249 4978 ft 248 kts 302°
2026-05-05 08:22 50.10902 8.97085 4886 ft 236 kts 302°
2026-05-05 08:22 50.11751 8.94895 4778 ft 236 kts 288°
2026-05-05 08:22 50.11936 8.92399 4626 ft 233 kts 259°
2026-05-05 08:22 50.11453 8.90016 4380 ft 231 kts 248°
2026-05-05 08:23 50.10893 8.87671 4162 ft 231 kts 248°
2026-05-05 08:23 50.10329 8.85332 3921 ft 231 kts 248°
2026-05-05 08:23 50.09768 8.82993 3630 ft 230 kts 249°
2026-05-05 08:23 50.09214 8.80647 3329 ft 230 kts 249°
2026-05-05 08:24 50.08664 8.78317 3029 ft 229 kts 249°
2026-05-05 08:24 50.08133 8.76065 2722 ft 219 kts 249°
2026-05-05 08:24 50.07622 8.73900 2437 ft 208 kts 249°
2026-05-05 08:24 50.07132 8.71832 2186 ft 193 kts 250°
2026-05-05 08:25 50.06768 8.69910 1945 ft 180 kts 257°
2026-05-05 08:25 50.06544 8.68057 1667 ft 166 kts 260°
2026-05-05 08:25 50.06315 8.66394 1452 ft 151 kts 255°
2026-05-05 08:25 50.05996 8.64874 1223 ft 144 kts 250°
2026-05-05 08:26 50.05645 8.63437 1008 ft 141 kts 250°
2026-05-05 08:26 50.05307 8.62038 836 ft 139 kts 251°
2026-05-05 08:26 50.04984 8.60661 671 ft 139 kts 251°
2026-05-05 08:26 50.04638 8.59227 490 ft 139 kts 250°
2026-05-05 08:27 50.04302 8.57853 369 ft 130 kts 251°
2026-05-05 08:27 50.04043 8.56730 359 ft 89 kts 250°
2026-05-05 08:27 50.03889 8.56058 355 ft 39 kts 252°
2026-05-05 08:27 50.03893 8.55783 353 ft 10 kts 285°
2026-05-05 08:28 50.03908 8.55676 351 ft 10 kts 289°
2026-05-05 08:28 50.03961 8.55638 351 ft 8 kts 18°
2026-05-05 08:28 50.03993 8.55715 351 ft 10 kts 69°
2026-05-05 08:28 50.04024 8.55849 355 ft 16 kts 70°
2026-05-05 08:29 50.04061 8.56009 354 ft 18 kts 68°
2026-05-05 08:29 50.04106 8.56197 355 ft 20 kts 70°
2026-05-05 08:29 50.04157 8.56406 357 ft 21 kts 71°
2026-05-05 08:30 50.04254 8.56782 367 ft 13 kts 47°
2026-05-05 08:30 50.04329 8.56823 360 ft 9 kts 11°
2026-05-05 08:30 50.04361 8.56832 360 ft 0 kts 11°
2026-05-05 08:30 50.04369 8.56835 360 ft 4 kts 11°
2026-05-05 08:31 50.04412 8.56846 364 ft 10 kts
2026-05-05 08:31 50.04479 8.56863 359 ft 9 kts 13°
2026-05-05 08:31 50.04545 8.56888 359 ft 10 kts 13°
2026-05-05 08:31 50.04628 8.56919 358 ft 13 kts 16°
2026-05-05 08:32 50.04707 8.56973 361 ft 12 kts 24°
2026-05-05 08:32 50.04764 8.57013 358 ft 8 kts 25°
2026-05-05 08:32 50.04814 8.57049 356 ft 7 kts 25°
2026-05-05 08:32 50.04856 8.57079 356 ft 6 kts 24°
2026-05-05 08:33 50.04889 8.57113 363 ft 5 kts 47°
2026-05-05 08:33 50.04891 8.57145 359 ft 1 kts 139°
2026-05-05 08:33 50.04884 8.57150 362 ft 1 kts 150°
2026-05-05 08:33 50.04881 8.57152 362 ft 0 kts 154°